Location: Kendal
(54.3280°N, 2.7463°W)
Time: 16:57:51
(UTC+01:00)

BlueWalker 3 - Visible Passes

Search period start: 13 May 2026 00:00
Search period end: 23 May 2026 00:00
Orbit: 447 x 458 km, 53.2° (Epoch: 13 May)

Date Brightness Start Highest point End Pass type
(mag) Time Alt. Az. Time Alt. Az. Time Alt. Az.
13 May 3.7 01:52:58 16° SE 01:52:58 16° SE 01:54:33 10° E visible
13 May 2.0 03:26:35 17° SW 03:29:02 50° SSE 03:32:29 10° E visible
14 May 4.2 01:17:09 11° ESE 01:17:09 11° ESE 01:17:26 10° ESE visible
14 May 2.1 02:50:46 26° SSW 02:52:17 44° SSE 02:55:41 10° E visible
15 May 2.3 02:14:54 34° S 02:15:34 38° SSE 02:18:53 10° E visible
15 May 1.6 03:49:12 10° W 03:52:44 74° S 03:56:18 10° E visible
16 May 2.5 01:38:57 32° SSE 01:38:57 32° SSE 01:42:03 10° E visible
16 May 1.6 03:12:33 11° WSW 03:15:57 71° S 03:19:30 10° E visible
17 May 3.0 01:02:56 25° SE 01:02:56 25° SE 01:05:11 10° E visible
17 May 1.6 02:36:31 16° WSW 02:39:10 66° SSE 02:42:42 10° E visible
17 May 1.7 04:12:57 10° W 04:16:29 69° S 04:20:01 10° ESE visible
18 May 3.4 00:26:45 19° ESE 00:26:45 19° ESE 00:28:16 10° E visible
18 May 1.7 02:00:20 23° WSW 02:02:23 61° SSE 02:05:54 10° E visible
18 May 1.6 03:36:09 10° W 03:39:41 72° S 03:43:14 10° ESE visible
18 May 3.7 23:50:21 15° ESE 23:50:21 15° ESE 23:51:19 10° E visible
19 May 1.7 01:23:54 26° SW 01:25:36 55° SSE 01:29:05 10° E visible
19 May 1.6 02:59:20 10° W 03:02:53 75° S 03:06:26 10° E visible
19 May 3.7 23:13:24 13° ESE 23:13:24 13° ESE 23:14:16 10° E visible
20 May 1.8 00:46:54 23° SW 00:48:49 48° SSE 00:52:16 10° E visible
20 May 1.6 02:22:32 10° W 02:26:04 76° S 02:29:38 10° E visible
20 May 2.0 03:59:53 10° W 04:03:19 47° SSW 04:06:44 10° SE visible
20 May 3.5 22:33:36 10° SSE 22:35:20 13° SE 22:37:03 10° ESE visible
21 May 2.0 00:08:40 10° SW 00:12:03 42° SSE 00:15:25 10° E visible
21 May 1.5 01:45:42 10° W 01:49:16 75° S 01:52:48 10° E visible
21 May 1.8 03:23:03 10° W 03:26:32 53° SSW 03:29:59 10° ESE visible
21 May 2.2 23:31:59 10° SW 23:35:16 36° SSE 23:38:34 10° E visible
22 May 1.5 01:08:53 10° W 01:12:26 73° S 01:15:59 10° E visible
22 May 1.7 02:46:14 10° W 02:49:43 59° SSW 02:53:13 10° ESE visible
22 May 2.4 22:55:20 10° SW 22:58:30 31° SSE 23:01:41 10° E visible
